Date String (YYYY-MM-DD hh:mm:ss) UTC,Instrument flags,Ambient pressure (hPa),Sample flow (lpm),Bypass flow (lpm),Sample temperature (°C),Ambient temperature (°C),ASC tube jacket temperature (°C),LED temperature (°C),Box temperature (°C),Sample RH (%),Span deviation,Mass concentration (μg/m³),Mass concentration (μg/m³),Mass concentration (μg/m³)
DateTimeUTC,F1_M11,P_M11,Q1_M11,Q2_M11,T1_M11,T2_M11,T3_M11,T4_M11,T5_M11,U1_M11,ZSPAN_M11,X0_M11,X2_M11,X1_M11
2022-09-21 17:00:00,,0834.5,4.99,0.00,30.7,29.4,00.0,39.4,32.5,24.6,0000.9,0019.72,0008.82,0007.30
2022-09-21 17:01:00,,0834.5,4.99,0.00,30.7,29.4,00.0,39.4,32.6,24.6,0000.7,0019.63,0008.86,0007.30
2022-09-21 17:02:00,,0834.5,5.01,0.00,30.7,29.4,00.0,39.5,32.6,24.5,0000.7,0019.48,0008.84,0007.30
2022-09-21 17:03:00,,0834.4,4.99,0.00,30.7,29.4,00.0,39.5,32.6,24.5,0000.2,0019.50,0008.91,0007.30
2022-09-21 17:04:00,,0834.4,5.01,0.00,30.7,29.4,00.0,39.5,32.6,24.5,-000.4,0019.52,0008.94,0007.32
2022-09-21 17:05:00,,0834.4,4.99,0.00,30.8,29.4,00.0,39.5,32.6,24.5,-000.4,0019.99,0008.95,0007.33
2022-09-21 17:06:00,,0834.4,4.99,0.00,30.8,29.4,00.0,39.5,32.6,24.5,-000.5,0020.38,0009.00,0007.33
2022-09-21 17:07:00,,0834.4,5.01,0.00,30.8,29.4,00.0,39.5,32.6,24.5,-000.7,0020.49,0009.03,0007.33
2022-09-21 17:08:00,,0834.4,4.99,0.00,30.8,29.4,00.0,39.5,32.6,24.4,-000.5,0019.86,0009.07,0007.34
2022-09-21 17:09:00,,0834.4,5.00,0.00,30.8,29.4,00.0,39.5,32.6,24.4,-000.5,0019.94,0009.08,0007.34
2022-09-21 17:10:00,,0834.4,5.01,0.00,30.8,29.4,00.0,39.5,32.6,24.3,-000.3,0019.75,0009.09,0007.32
2022-09-21 17:11:00,,0834.4,4.99,0.00,30.8,29.5,00.0,39.5,32.6,24.3,-000.3,0019.07,0009.13,0007.33
2022-09-21 17:12:00,,0834.4,5.00,0.00,30.8,29.5,00.0,39.5,32.6,24.3,-000.6,0018.67,0009.12,0007.30
2022-09-21 17:13:00,,0834.4,5.00,0.00,30.8,29.5,00.0,39.5,32.7,24.3,-000.6,0018.85,0009.16,0007.30
2022-09-21 17:14:00,,0834.4,4.99,0.00,30.8,29.5,00.0,39.5,32.7,24.3,-000.3,0018.81,0009.05,0007.30
2022-09-21 17:15:00,,0834.4,5.00,0.00,30.8,29.5,00.0,39.6,32.7,24.3,0000.1,0018.09,0008.96,0007.27
2022-09-21 17:16:00,,0834.4,5.00,0.00,30.8,29.5,00.0,39.6,32.7,24.3,0000.2,0018.01,0008.92,0007.26
2022-09-21 17:17:00,,0834.4,4.99,0.00,30.8,29.5,00.0,39.6,32.7,24.3,0000.1,0017.69,0008.92,0007.26
2022-09-21 17:18:00,,0834.4,5.00,0.00,30.9,29.5,00.0,39.6,32.7,24.3,0000.2,0017.81,0008.95,0007.28
2022-09-21 17:19:00,,0834.4,5.00,0.00,30.9,29.5,00.0,39.6,32.7,24.3,0000.3,0018.67,0008.94,0007.28
2022-09-21 17:20:00,,0834.3,5.01,0.00,30.9,29.5,00.0,39.6,32.7,24.3,0000.1,0020.35,0009.00,0007.30
2022-09-21 17:21:00,,0834.3,5.00,0.00,30.9,29.5,00.0,39.6,32.7,24.4,-000.3,0020.90,0009.05,0007.33
2022-09-21 17:22:00,,0834.3,5.00,0.00,30.9,29.5,00.0,39.6,32.7,24.4,-000.1,0021.32,0009.02,0007.34
2022-09-21 17:23:00,,0834.3,5.00,0.00,30.9,29.5,00.0,39.6,32.7,24.4,0000.0,0021.14,0009.04,0007.38
2022-09-21 17:24:00,,0834.3,5.00,0.00,30.9,29.6,00.0,39.6,32.7,24.4,-000.0,0021.01,0009.05,0007.40
2022-09-21 17:25:00,,0834.3,5.00,0.00,30.9,29.6,00.0,39.6,32.7,24.4,0000.1,0020.44,0009.14,0007.42
2022-09-21 17:26:00,,0834.2,5.00,0.00,30.9,29.6,00.0,39.6,32.7,24.3,0000.4,0020.94,0009.24,0007.46
2022-09-21 17:27:00,,0834.3,5.01,0.00,30.9,29.6,00.0,39.6,32.7,24.4,0000.6,0020.67,0009.24,0007.48
2022-09-21 17:28:00,,0834.3,5.00,0.00,30.9,29.6,00.0,39.6,32.7,24.4,0000.6,0021.10,0009.23,0007.48
2022-09-21 17:29:00,,0834.3,4.99,0.00,30.9,29.6,00.0,39.6,32.7,24.3,0000.6,0020.92,0009.23,0007.49
2022-09-21 17:30:00,,0834.3,5.01,0.00,30.9,29.6,00.0,39.7,32.8,24.2,0000.3,0020.35,0009.19,0007.50
2022-09-21 17:31:00,,0834.3,4.99,0.00,30.9,29.6,00.0,39.7,32.8,24.3,0000.9,0018.42,0009.16,0007.50
2022-09-21 17:32:00,,0834.3,5.00,0.00,31.0,29.5,00.0,39.7,32.8,24.2,0001.0,0017.97,0009.12,0007.50
2022-09-21 17:33:00,,0834.3,5.00,0.00,30.9,29.5,00.0,39.7,32.8,24.1,0001.0,0017.82,0009.14,0007.53
2022-09-21 17:34:00,,0834.3,4.99,0.00,31.0,29.5,00.0,39.7,32.8,24.1,0001.1,0019.21,0009.18,0007.54
2022-09-21 17:35:00,,0834.3,5.01,0.00,31.0,29.5,00.0,39.7,32.8,24.2,0001.0,0019.44,0009.17,0007.55
2022-09-21 17:36:00,,0834.3,5.00,0.00,31.0,29.5,00.0,39.7,32.8,24.0,0000.6,0019.90,0009.13,0007.55
2022-09-21 17:37:00,,0834.3,5.01,0.00,31.0,29.5,00.0,39.7,32.8,24.1,0000.2,0020.73,0009.14,0007.55
2022-09-21 17:38:00,,0834.2,4.99,0.00,31.0,29.5,00.0,39.7,32.8,24.3,0000.1,0021.91,0009.15,0007.56
2022-09-21 17:39:00,,0834.3,5.01,0.00,31.0,29.5,00.0,39.7,32.8,24.1,0000.1,0021.85,0009.21,0007.59
2022-09-21 17:40:00,,0834.3,5.00,0.00,31.0,29.5,00.0,39.7,32.8,24.1,0000.2,0022.28,0009.22,0007.61
2022-09-21 17:41:00,,0834.3,5.01,0.00,30.9,29.5,00.0,39.7,32.8,24.0,0000.7,0022.71,0009.29,0007.63
2022-09-21 17:42:00,,0834.3,4.99,0.00,31.0,29.6,00.0,39.7,32.8,24.0,0000.6,0022.93,0009.33,0007.63
2022-09-21 17:43:00,,0834.3,5.01,0.00,31.0,29.6,00.0,39.7,32.8,24.1,0000.6,0023.38,0009.35,0007.63
2022-09-21 17:44:00,,0834.3,4.99,0.00,31.0,29.6,00.0,39.7,32.8,24.0,0000.5,0023.81,0009.39,0007.64
2022-09-21 17:45:00,,0834.3,5.01,0.00,31.0,29.6,00.0,39.7,32.8,24.0,0000.6,0022.92,0009.36,0007.65
2022-09-21 17:46:00,,0834.3,4.99,0.00,31.0,29.6,00.0,39.7,32.8,24.1,0000.7,0022.94,0009.36,0007.64
2022-09-21 17:47:00,,0834.3,5.01,0.00,31.0,29.6,00.0,39.7,32.8,24.1,0001.0,0023.73,0009.44,0007.64
2022-09-21 17:48:00,,0834.3,5.00,0.00,31.0,29.6,00.0,39.8,32.8,24.1,0000.9,0022.69,0009.46,0007.66
2022-09-21 17:49:00,,0834.3,4.99,0.00,31.0,29.5,00.0,39.8,32.8,24.1,0001.0,0022.05,0009.53,0007.69
2022-09-21 17:50:00,,0834.3,5.01,0.00,31.0,29.6,00.0,39.8,32.8,24.2,0001.0,0021.59,0009.53,0007.70
2022-09-21 17:51:00,,0834.2,4.99,0.00,31.0,29.5,00.0,39.8,32.8,24.4,0000.9,0021.59,0009.53,0007.68
2022-09-21 17:52:00,,0834.2,5.01,0.00,31.0,29.5,00.0,39.8,32.8,24.5,0000.7,0021.74,0009.54,0007.66
2022-09-21 17:53:00,,0834.2,4.99,0.00,31.0,29.5,00.0,39.8,32.8,24.3,0000.2,0022.05,0009.52,0007.67
2022-09-21 17:54:00,,0834.2,5.00,0.00,31.0,29.5,00.0,39.8,32.8,24.3,0000.2,0022.19,0009.52,0007.69
2022-09-21 17:55:00,,0834.2,4.99,0.00,31.0,29.4,00.0,39.8,32.8,24.3,0000.2,0022.88,0009.65,0007.70
2022-09-21 17:56:00,,0834.3,5.01,0.00,31.0,29.4,00.0,39.8,32.8,24.4,0000.2,0023.59,0009.76,0007.68
2022-09-21 17:57:00,,0834.3,4.99,0.00,31.0,29.5,00.0,39.8,32.8,24.4,0000.0,0023.08,0009.81,0007.69
2022-09-21 17:58:00,,0834.3,5.01,0.00,31.0,29.5,00.0,39.8,32.8,24.4,0000.1,0022.67,0009.81,0007.69
2022-09-21 17:59:00,,0834.3,5.00,0.00,31.0,29.5,00.0,39.8,32.8,24.4,0000.2,0022.73,0009.84,0007.70
